User: anonymous   Login
Location: Unspecified
(0.0000°N, 0.0000°E)
Time: 23:43:36
(UTC+00:00)
Language:

Explorer 11/Cluster Stage 4 - Orbit

View from above orbital plane
View from above orbital plane
View from above satellite
View from above satellite

Ground track
Ground track

The orbit data is extracted from the following two-line orbital elements,

1   107U 61013A   17348.96811570 +.00000750 +00000-0 +83043-4 0  9993
2   107 028.7891 310.0251 0548525 007.6862 353.1732 14.08481331837022
Epoch (UTC): 14 December 2017 23:14:05
Eccentricity: 0.0548525
inclination: 28.7891°
perigee height: 467 km
apogee height: 1262 km
right ascension of ascending node: 310.0251°
argument of perigee: 7.6862°
revolutions per day: 14.08481331
mean anomaly at epoch: 353.1732°
orbit number at epoch: 83702

The dashed part of the orbit path shows where the satellite is in the earth's shadow,  

DLR